BOX170 EDDP-EDDF

Flight info

Callsign BOX170
Flight time 0h 36m
Altitude 22000
Route ORTAG5N ORTAG T177 ODIPI/N0404F210 T157 KERAX KERAX5A
Aircraft B77L/H-SDE1E2E3FGHIJ2J3J4J5M1RWXY/LB1D1

Departure

Time 2026-05-06 10:38
Airport Leipzig/Halle Airport (EDDP)

Arrival

Time 2026-05-06 11:14
Airport Frankfurt Main Airport (EDDF)
Time Latitude Longitude Altitude Speed Heading
2026-05-06 10:00 51.40856 12.24822 472 ft 0 kts 85°
2026-05-06 10:30 51.40856 12.24811 466 ft 4 kts 85°
2026-05-06 10:30 51.40854 12.24771 466 ft 2 kts 86°
2026-05-06 10:30 51.40849 12.24735 463 ft 4 kts 43°
2026-05-06 10:31 51.40827 12.24723 462 ft 4 kts 354°
2026-05-06 10:31 51.40810 12.24726 464 ft 1 kts 355°
2026-05-06 10:31 51.40807 12.24726 464 ft 0 kts 355°
2026-05-06 10:33 51.40808 12.24726 464 ft 1 kts 355°
2026-05-06 10:34 51.40864 12.24695 468 ft 12 kts 335°
2026-05-06 10:34 51.40945 12.24661 473 ft 12 kts 355°
2026-05-06 10:34 51.41037 12.24650 474 ft 13 kts 355°
2026-05-06 10:34 51.41100 12.24728 473 ft 13 kts 81°
2026-05-06 10:35 51.41109 12.24870 482 ft 13 kts 85°
2026-05-06 10:35 51.41115 12.25013 484 ft 13 kts 85°
2026-05-06 10:35 51.41122 12.25156 482 ft 13 kts 86°
2026-05-06 10:35 51.41128 12.25299 485 ft 13 kts 86°
2026-05-06 10:36 51.41135 12.25441 480 ft 13 kts 85°
2026-05-06 10:36 51.41150 12.25582 475 ft 13 kts 60°
2026-05-06 10:36 51.41230 12.25624 476 ft 13 kts 354°
2026-05-06 10:36 51.41322 12.25605 476 ft 13 kts 345°
2026-05-06 10:37 51.41391 12.25511 475 ft 14 kts 293°
2026-05-06 10:37 51.41386 12.25294 476 ft 37 kts 265°
2026-05-06 10:37 51.41347 12.24480 475 ft 107 kts 265°
2026-05-06 10:37 51.41278 12.22986 476 ft 164 kts 266°
2026-05-06 10:38 51.41188 12.20992 764 ft 184 kts 266°
2026-05-06 10:38 51.41095 12.18955 1499 ft 180 kts 266°
2026-05-06 10:38 51.40990 12.16984 2272 ft 175 kts 265°
2026-05-06 10:38 51.40898 12.14964 2647 ft 193 kts 265°
2026-05-06 10:39 51.40799 12.12697 2898 ft 217 kts 265°
2026-05-06 10:39 51.40685 12.10150 3168 ft 240 kts 265°
2026-05-06 10:39 51.40558 12.07447 3961 ft 243 kts 264°
2026-05-06 10:39 51.40426 12.04717 4725 ft 250 kts 264°
2026-05-06 10:40 51.40289 12.01908 5460 ft 255 kts 264°
2026-05-06 10:40 51.40146 11.99059 6328 ft 258 kts 264°
2026-05-06 10:40 51.39999 11.96183 7115 ft 260 kts 264°
2026-05-06 10:40 51.39851 11.93287 7903 ft 262 kts 264°
2026-05-06 10:41 51.39705 11.90365 8679 ft 264 kts 264°
2026-05-06 10:41 51.39558 11.87412 9448 ft 267 kts 264°
2026-05-06 10:41 51.39410 11.84420 10121 ft 273 kts 263°
2026-05-06 10:41 51.39251 11.81286 10372 ft 295 kts 263°
2026-05-06 10:42 51.39077 11.77873 10586 ft 320 kts 264°
2026-05-06 10:42 51.38891 11.74174 10814 ft 344 kts 265°
2026-05-06 10:42 51.39028 11.70298 11230 ft 358 kts 280°
2026-05-06 10:42 51.39666 11.66397 12015 ft 366 kts 283°
2026-05-06 10:43 51.40330 11.62446 12983 ft 369 kts 282°
2026-05-06 10:43 51.40972 11.58509 13869 ft 373 kts 282°
2026-05-06 10:43 51.41616 11.54462 14662 ft 378 kts 281°
2026-05-06 10:44 51.42904 11.46183 16225 ft 387 kts 281°
2026-05-06 10:44 51.43552 11.41964 17013 ft 392 kts 281°
2026-05-06 10:44 51.44206 11.37690 17787 ft 397 kts 281°
2026-05-06 10:44 51.44864 11.33370 18480 ft 402 kts 281°
2026-05-06 10:45 51.45530 11.28993 19163 ft 406 kts 280°
2026-05-06 10:45 51.46210 11.24518 19858 ft 409 kts 280°
2026-05-06 10:45 51.46874 11.20141 20686 ft 408 kts 280°
2026-05-06 10:45 51.47549 11.15672 21551 ft 408 kts 280°
2026-05-06 10:46 51.48129 11.11232 21763 ft 404 kts 272°
2026-05-06 10:46 51.47927 11.06780 21799 ft 401 kts 254°
2026-05-06 10:46 51.46970 11.02677 21761 ft 396 kts 240°
2026-05-06 10:46 51.45616 10.98828 21774 ft 396 kts 239°
2026-05-06 10:47 51.44237 10.94992 21764 ft 397 kts 239°
2026-05-06 10:47 51.42861 10.91162 21762 ft 397 kts 239°
2026-05-06 10:47 51.41494 10.87330 21767 ft 396 kts 239°
2026-05-06 10:47 51.40135 10.83495 21772 ft 396 kts 239°
2026-05-06 10:48 51.38781 10.79660 21768 ft 396 kts 239°
2026-05-06 10:48 51.37429 10.75821 21767 ft 395 kts 239°
2026-05-06 10:48 51.36078 10.71989 21766 ft 396 kts 239°
2026-05-06 10:48 51.34726 10.68155 21764 ft 396 kts 239°
2026-05-06 10:49 51.33811 10.65565 21768 ft 396 kts 239°
2026-05-06 10:49 51.32451 10.61719 21772 ft 397 kts 239°
2026-05-06 10:49 51.31094 10.57884 21761 ft 397 kts 239°
2026-05-06 10:49 51.29736 10.54052 21761 ft 395 kts 239°
2026-05-06 10:50 51.28382 10.50246 21758 ft 394 kts 239°
2026-05-06 10:50 51.26950 10.46523 21753 ft 392 kts 234°
2026-05-06 10:50 51.25288 10.43088 21756 ft 390 kts 230°
2026-05-06 10:50 51.23568 10.39741 21756 ft 390 kts 230°
2026-05-06 10:51 51.21861 10.36381 21752 ft 389 kts 230°
2026-05-06 10:51 51.20165 10.33020 21755 ft 389 kts 230°
2026-05-06 10:51 51.18468 10.29653 21756 ft 389 kts 230°
2026-05-06 10:51 51.16767 10.26311 21750 ft 386 kts 227°
2026-05-06 10:52 51.14720 10.23595 21757 ft 386 kts 210°
2026-05-06 10:52 51.12232 10.21938 21746 ft 391 kts 197°
2026-05-06 10:52 51.09537 10.21298 21743 ft 394 kts 184°
2026-05-06 10:52 51.06782 10.21276 21753 ft 397 kts 182°
2026-05-06 10:53 51.04008 10.21297 21755 ft 400 kts 182°
2026-05-06 10:53 51.01227 10.21304 21756 ft 401 kts 182°
2026-05-06 10:53 50.98431 10.21286 21753 ft 402 kts 183°
2026-05-06 10:53 50.95631 10.21246 21753 ft 402 kts 183°
2026-05-06 10:54 50.92840 10.21195 21749 ft 401 kts 183°
2026-05-06 10:54 50.90056 10.21140 21757 ft 400 kts 183°
2026-05-06 10:54 50.87272 10.21084 21741 ft 399 kts 183°
2026-05-06 10:54 50.84510 10.20983 21737 ft 392 kts 187°
2026-05-06 10:55 50.81894 10.19953 21758 ft 388 kts 206°
2026-05-06 10:55 50.79657 10.17700 21749 ft 376 kts 220°
2026-05-06 10:55 50.77856 10.14823 21739 ft 363 kts 232°
2026-05-06 10:55 50.76575 10.11444 21768 ft 360 kts 242°
2026-05-06 10:56 50.75454 10.07839 21384 ft 371 kts 242°
2026-05-06 10:56 50.74319 10.04161 20974 ft 373 kts 242°
2026-05-06 10:56 50.73181 10.00495 20536 ft 370 kts 242°
2026-05-06 10:56 50.72044 9.96868 20117 ft 367 kts 242°
2026-05-06 10:57 50.70908 9.93280 19693 ft 364 kts 242°
2026-05-06 10:57 50.69776 9.89728 19256 ft 361 kts 242°
2026-05-06 10:57 50.68650 9.86207 18842 ft 358 kts 242°
2026-05-06 10:57 50.67532 9.82719 18445 ft 356 kts 242°
2026-05-06 10:58 50.66417 9.79247 18009 ft 354 kts 242°
2026-05-06 10:58 50.65305 9.75790 17523 ft 352 kts 242°
2026-05-06 10:58 50.64203 9.72372 17078 ft 348 kts 241°
2026-05-06 10:58 50.62885 9.69250 16642 ft 340 kts 226°
2026-05-06 10:59 50.61108 9.66841 16267 ft 335 kts 214°
2026-05-06 10:59 50.59073 9.65114 15852 ft 332 kts 202°
2026-05-06 10:59 50.56918 9.63858 15468 ft 328 kts 201°
2026-05-06 10:59 50.54785 9.62607 15066 ft 325 kts 202°
2026-05-06 11:00 50.52681 9.61346 14682 ft 322 kts 202°
2026-05-06 11:00 50.50596 9.60083 14296 ft 320 kts 202°
2026-05-06 11:00 50.48581 9.58692 13911 ft 315 kts 210°
2026-05-06 11:00 50.46761 9.56812 13544 ft 312 kts 218°
2026-05-06 11:01 50.45150 9.54559 13124 ft 309 kts 225°
2026-05-06 11:01 50.43656 9.52153 12737 ft 306 kts 226°
2026-05-06 11:01 50.42190 9.49759 12348 ft 303 kts 226°
2026-05-06 11:01 50.40737 9.47387 11981 ft 300 kts 226°
2026-05-06 11:02 50.39299 9.45051 11616 ft 297 kts 226°
2026-05-06 11:02 50.37876 9.42749 11260 ft 294 kts 226°
2026-05-06 11:02 50.36457 9.40462 10903 ft 291 kts 226°
2026-05-06 11:02 50.35053 9.38203 10560 ft 288 kts 225°
2026-05-06 11:03 50.33663 9.35973 10290 ft 282 kts 225°
2026-05-06 11:03 50.32317 9.33818 10180 ft 271 kts 225°
2026-05-06 11:03 50.31021 9.31745 10034 ft 261 kts 225°
2026-05-06 11:03 50.29781 9.29763 9925 ft 249 kts 225°
2026-05-06 11:04 50.28603 9.27882 9827 ft 243 kts 225°
2026-05-06 11:04 50.27397 9.25959 9641 ft 254 kts 225°
2026-05-06 11:04 50.26127 9.23933 9317 ft 259 kts 225°
2026-05-06 11:04 50.24874 9.21937 9087 ft 253 kts 225°
2026-05-06 11:05 50.23679 9.20034 8869 ft 245 kts 225°
2026-05-06 11:05 50.22476 9.18120 8581 ft 245 kts 225°
2026-05-06 11:05 50.21278 9.16217 8301 ft 253 kts 226°
2026-05-06 11:05 50.20016 9.14214 7988 ft 257 kts 226°
2026-05-06 11:06 50.18770 9.12222 7641 ft 253 kts 229°
2026-05-06 11:06 50.17933 9.09918 7315 ft 247 kts 251°
2026-05-06 11:06 50.17421 9.07367 7044 ft 249 kts 250°
2026-05-06 11:06 50.16827 9.04772 6774 ft 251 kts 249°
2026-05-06 11:07 50.16232 9.02264 6670 ft 241 kts 249°
2026-05-06 11:07 50.15659 8.99856 6411 ft 235 kts 249°
2026-05-06 11:07 50.15094 8.97490 6128 ft 230 kts 249°
2026-05-06 11:07 50.14544 8.95173 5819 ft 226 kts 249°
2026-05-06 11:08 50.14004 8.92901 5534 ft 221 kts 249°
2026-05-06 11:08 50.13480 8.90700 5244 ft 217 kts 249°
2026-05-06 11:08 50.12958 8.88506 5053 ft 209 kts 249°
2026-05-06 11:08 50.12455 8.86392 4744 ft 205 kts 249°
2026-05-06 11:09 50.11969 8.84340 4526 ft 200 kts 249°
2026-05-06 11:09 50.11492 8.82340 4254 ft 194 kts 248°
2026-05-06 11:09 50.11035 8.80424 3980 ft 189 kts 248°
2026-05-06 11:09 50.10579 8.78512 3707 ft 183 kts 248°
2026-05-06 11:10 50.10152 8.76722 3505 ft 171 kts 248°
2026-05-06 11:10 50.09743 8.75000 3283 ft 173 kts 248°
2026-05-06 11:10 50.09316 8.73215 3066 ft 179 kts 247°
2026-05-06 11:10 50.08877 8.71374 2791 ft 182 kts 248°
2026-05-06 11:11 50.08441 8.69548 2546 ft 176 kts 248°
2026-05-06 11:11 50.08026 8.67817 2302 ft 165 kts 248°
2026-05-06 11:11 50.07645 8.66196 2120 ft 154 kts 247°
2026-05-06 11:11 50.07290 8.64702 1892 ft 137 kts 247°
2026-05-06 11:12 50.06953 8.63294 1743 ft 147 kts 248°
2026-05-06 11:12 50.06591 8.61798 1539 ft 147 kts 248°
2026-05-06 11:12 50.06232 8.60315 1301 ft 145 kts 249°
2026-05-06 11:12 50.05909 8.58851 1049 ft 138 kts 249°
2026-05-06 11:13 50.05553 8.57460 1025 ft 147 kts 247°
2026-05-06 11:13 50.05210 8.56015 791 ft 138 kts 249°
2026-05-06 11:13 50.04894 8.54640 566 ft 133 kts 248°
2026-05-06 11:13 50.04569 8.53292 394 ft 134 kts 247°
2026-05-06 11:14 50.04255 8.52015 353 ft 103 kts 250°
2026-05-06 11:14 50.04086 8.51297 331 ft 38 kts 250°
2026-05-06 11:14 50.03989 8.51029 330 ft 27 kts 229°
2026-05-06 11:14 50.03862 8.50859 329 ft 13 kts 213°
2026-05-06 11:15 50.03783 8.50879 334 ft 13 kts 128°
2026-05-06 11:15 50.03742 8.51003 352 ft 13 kts 116°
2026-05-06 11:15 50.03702 8.51127 355 ft 13 kts 116°
2026-05-06 11:15 50.03662 8.51252 356 ft 13 kts 116°
2026-05-06 11:16 50.03623 8.51377 361 ft 13 kts 115°
2026-05-06 11:16 50.03585 8.51499 365 ft 13 kts 116°
2026-05-06 11:16 50.03546 8.51624 368 ft 13 kts 116°
2026-05-06 11:16 50.03513 8.51753 365 ft 13 kts 99°
2026-05-06 11:17 50.03519 8.51900 361 ft 15 kts 83°
2026-05-06 11:17 50.03533 8.52072 357 ft 15 kts 83°
2026-05-06 11:17 50.03546 8.52243 352 ft 16 kts 83°
2026-05-06 11:17 50.03577 8.52415 350 ft 17 kts 69°
2026-05-06 11:18 50.03594 8.52565 352 ft 14 kts 86°
2026-05-06 11:18 50.03615 8.52710 351 ft 13 kts 71°
2026-05-06 11:18 50.03642 8.52804 354 ft 8 kts 45°
2026-05-06 11:18 50.03694 8.52799 358 ft 8 kts 341°
2026-05-06 11:19 50.03730 8.52778 358 ft 2 kts 339°
2026-05-06 11:19 50.03735 8.52775 358 ft 0 kts 339°